TITAN 3C TRANSTAGE DEB, 38691

Orbit data source: Space-Track

TITAN 3C TRANSTAGE DEB, 38691 is space debris originally from a launch on Thu, 26 Sep 1968 UTC launched from the Air Force Eastern Test Range (AFETR). Debris objects in space refer to the collection of defunct objects orbiting the Earth. Examples of debris include non-operational satellites, rocket bodies, and fragments generated from explosions, collisions, or faulty payload assembly.

Loading next visibility...
TITAN 3C TRANSTAGE DEB details
Identifier
38691, 1968-081R
Orbit
Active
Last TLE update1 day ago
Origin
Flag of USUSAF SSD (US)
ManufacturerUnknown
MissionSpacecraft
Bus & MotorUnknown
MassUnknown
Launch date (UTC)
1968-09-26 (56 years ago)
Launch vehicleUnknown
Launch site
Air Force Eastern Test Range (AFETR)
Object type
Payload
Rocket body
Debris
Shape & HBRUnknown
Radar Cross SectionSmall (<0.1 m²)

Expand to show TLE details & history

TLE from 1 day ago
0 TITAN 3C TRANSTAGE DEB
1 38691U 68081R   24325.15891582 -.00000244  00000-0  00000-0 0  9996
2 38691   1.4473  23.1560 0199951 275.8547  81.1365  1.00719992 45581
Epoch: 2024-11-20T03:48Z
Definitive object data (Epoch: 2024-11-20T03:48:50.326Z)
Latitude0.00001°
Longitude-94.46863°
Altitude35,551.006 km
Speed3.087 km/s
True Right ascension01h 29m 36s
True Declination0° 00' 00"
Sunlit
Object was in daylight at TLE epoch
Visualization TLE readout
Latitude0.94596°
Longitude-53.84303°
Altitude36,120.913 km
Speed3.046 km/s
Apparent Right ascension04h 18m 19s
Apparent Declination-5° 06' 21"
Sunlit
Object is in daylight
Visualization observer readout
Local Sidereal Time03:23:50
Azimuth161.211° S
Elevation43.263°
Doppler factor1
Orbital elements
Apogee altitude36,503.092 km
Perigee altitude34,821.879 km
Semi-major axis42,040.622 km
Eccentricity0.0199951
Inclination1.4473°
RAAN23.156°
Arg. of periapsis275.8547°
True anomaly83.40856°
Mean anomaly81.1365°
Eccentric anomaly82.27173°
Mean motion0.25179 °/min
BSTARUnknown
Orbital period1429.76 mins
Loading maneuver chart data...

TITAN 3C TRANSTAGE DEB Visibility forecast

Observer location: undefined°, undefined

Span
Click to sort rows by Start time (UTC) header in descending order
Start Az.
Max El. time (UTC)
Max El. Az.
Max El.
End time (UTC)
End Az.
1440 mins2024-11-21 06:21:19.252Z161.218° S2024-11-21 10:58:19.252Z164.162° S34.933°2024-11-22 06:21:19.252Z158.895° S
|